DLH6CR EDDF-EDXW

Flight info

Callsign DLH6CR
Flight time 0h 53m
Altitude 37000
Route MARUN6E/07C MARUN Y150 TOLGI DCT ELSOB Y348 OMWEG/N0455F380 DCT BADOS DCT OLDIP
Aircraft A319/M-SDE3FGHIRWY/LB1

Departure

Time 2026-05-08 17:05
Airport Frankfurt Main Airport (EDDF)

Arrival

Time 2026-05-08 17:58
Airport Westerland Sylt Airport (EDXW)
Time Latitude Longitude Altitude Speed Heading
2026-05-08 16:40 50.04899 8.58796 362 ft 0 kts 160°
2026-05-08 16:56 50.04908 8.58791 365 ft 4 kts 160°
2026-05-08 16:56 50.04930 8.58779 363 ft 4 kts 166°
2026-05-08 16:56 50.04952 8.58785 360 ft 4 kts 232°
2026-05-08 16:57 50.04964 8.58819 362 ft 4 kts 250°
2026-05-08 16:57 50.04966 8.58828 364 ft 1 kts 250°
2026-05-08 16:59 50.04957 8.58791 360 ft 6 kts 249°
2026-05-08 16:59 50.04941 8.58725 360 ft 8 kts 249°
2026-05-08 17:00 50.04884 8.58687 362 ft 10 kts 167°
2026-05-08 17:00 50.04799 8.58735 369 ft 16 kts 160°
2026-05-08 17:00 50.04709 8.58711 369 ft 15 kts 240°
2026-05-08 17:00 50.04666 8.58535 370 ft 19 kts 249°
2026-05-08 17:01 50.04618 8.58338 368 ft 21 kts 249°
2026-05-08 17:01 50.04563 8.58105 363 ft 25 kts 249°
2026-05-08 17:01 50.04502 8.57850 365 ft 25 kts 249°
2026-05-08 17:01 50.04441 8.57595 364 ft 25 kts 250°
2026-05-08 17:02 50.04376 8.57320 363 ft 28 kts 249°
2026-05-08 17:02 50.04307 8.57035 362 ft 29 kts 250°
2026-05-08 17:02 50.04238 8.56741 361 ft 29 kts 249°
2026-05-08 17:02 50.04170 8.56456 359 ft 28 kts 250°
2026-05-08 17:03 50.04100 8.56162 352 ft 29 kts 250°
2026-05-08 17:03 50.04028 8.55862 354 ft 30 kts 250°
2026-05-08 17:03 50.03965 8.55600 358 ft 21 kts 250°
2026-05-08 17:03 50.03910 8.55482 350 ft 0 kts 181°
2026-05-08 17:04 50.03908 8.55481 349 ft 0 kts 181°
2026-05-08 17:04 50.03904 8.55482 349 ft 2 kts 179°
2026-05-08 17:04 50.03860 8.55504 354 ft 12 kts 159°
2026-05-08 17:04 50.03781 8.55568 351 ft 13 kts 116°
2026-05-08 17:05 50.03798 8.55704 356 ft 16 kts 69°
2026-05-08 17:05 50.03914 8.56194 356 ft 87 kts 70°
2026-05-08 17:05 50.04199 8.57397 416 ft 140 kts 70°
2026-05-08 17:05 50.04528 8.58775 1012 ft 138 kts 70°
2026-05-08 17:06 50.04862 8.60182 1589 ft 142 kts 68°
2026-05-08 17:06 50.05237 8.61730 1912 ft 164 kts 65°
2026-05-08 17:06 50.06063 8.63185 2116 ft 197 kts 29°
2026-05-08 17:06 50.07440 8.63565 2648 ft 211 kts 352°
2026-05-08 17:07 50.08908 8.63227 3553 ft 213 kts 354°
2026-05-08 17:07 50.10379 8.63115 4524 ft 218 kts 357°
2026-05-08 17:07 50.11975 8.63069 5093 ft 242 kts 358°
2026-05-08 17:07 50.13733 8.63022 5737 ft 261 kts 358°
2026-05-08 17:08 50.15573 8.62955 6668 ft 267 kts 357°
2026-05-08 17:08 50.17450 8.62867 7604 ft 272 kts 356°
2026-05-08 17:08 50.19361 8.62847 8543 ft 279 kts
2026-05-08 17:08 50.21236 8.63729 9458 ft 286 kts 22°
2026-05-08 17:09 50.23069 8.64996 10318 ft 294 kts 22°
2026-05-08 17:09 50.25013 8.66358 10663 ft 318 kts 23°
2026-05-08 17:09 50.27107 8.67834 10959 ft 342 kts 23°
2026-05-08 17:09 50.29330 8.69403 11476 ft 355 kts 23°
2026-05-08 17:10 50.31602 8.71010 12218 ft 361 kts 23°
2026-05-08 17:10 50.33903 8.72640 13008 ft 365 kts 23°
2026-05-08 17:10 50.36230 8.74292 13786 ft 369 kts 23°
2026-05-08 17:10 50.38590 8.75965 14485 ft 374 kts 23°
2026-05-08 17:11 50.40972 8.77647 15173 ft 377 kts 23°
2026-05-08 17:11 50.43381 8.79347 15856 ft 381 kts 23°
2026-05-08 17:11 50.45814 8.81067 16541 ft 385 kts 23°
2026-05-08 17:11 50.48268 8.82806 17219 ft 389 kts 23°
2026-05-08 17:12 50.50748 8.84565 17904 ft 393 kts 23°
2026-05-08 17:12 50.53257 8.86353 18552 ft 397 kts 23°
2026-05-08 17:12 50.55781 8.88159 19144 ft 400 kts 23°
2026-05-08 17:12 50.58327 8.89980 19736 ft 404 kts 23°
2026-05-08 17:13 50.60859 8.91792 20326 ft 407 kts 23°
2026-05-08 17:13 50.63445 8.93645 20900 ft 410 kts 23°
2026-05-08 17:13 50.66050 8.95511 21462 ft 413 kts 23°
2026-05-08 17:13 50.68678 8.97392 22007 ft 416 kts 23°
2026-05-08 17:14 50.71323 8.99287 22553 ft 419 kts 23°
2026-05-08 17:14 50.73989 9.01200 23077 ft 422 kts 23°
2026-05-08 17:14 50.76673 9.03130 23596 ft 426 kts 23°
2026-05-08 17:14 50.79376 9.05078 24042 ft 429 kts 23°
2026-05-08 17:15 50.82097 9.07046 24465 ft 431 kts 23°
2026-05-08 17:15 50.84836 9.09026 24899 ft 434 kts 23°
2026-05-08 17:15 50.87588 9.11013 25332 ft 436 kts 23°
2026-05-08 17:15 50.90356 9.13015 25755 ft 439 kts 23°
2026-05-08 17:16 50.93137 9.15034 26168 ft 441 kts 24°
2026-05-08 17:16 50.95936 9.17070 26585 ft 443 kts 24°
2026-05-08 17:16 50.98748 9.19117 26988 ft 446 kts 23°
2026-05-08 17:16 51.01577 9.21173 27386 ft 448 kts 23°
2026-05-08 17:17 51.04419 9.23246 27774 ft 451 kts 24°
2026-05-08 17:17 51.07272 9.25332 28157 ft 453 kts 24°
2026-05-08 17:17 51.10157 9.27379 28526 ft 455 kts 20°
2026-05-08 17:17 51.13173 9.28878 28886 ft 456 kts 12°
2026-05-08 17:18 51.16282 9.29946 29239 ft 458 kts 11°
2026-05-08 17:18 51.19404 9.31011 29603 ft 460 kts 11°
2026-05-08 17:18 51.22533 9.32082 30037 ft 460 kts 11°
2026-05-08 17:18 51.25654 9.33162 30498 ft 458 kts 11°
2026-05-08 17:19 51.28766 9.34248 30924 ft 457 kts 11°
2026-05-08 17:19 51.31876 9.35338 31336 ft 457 kts 11°
2026-05-08 17:19 51.34936 9.36408 31736 ft 456 kts 11°
2026-05-08 17:19 51.38036 9.37488 32145 ft 456 kts 11°
2026-05-08 17:20 51.41130 9.38566 32556 ft 455 kts 11°
2026-05-08 17:20 51.44224 9.39644 32970 ft 454 kts 11°
2026-05-08 17:20 51.47311 9.40723 33379 ft 454 kts 11°
2026-05-08 17:20 51.50393 9.41803 33795 ft 453 kts 11°
2026-05-08 17:21 51.53476 9.42883 34204 ft 453 kts 11°
2026-05-08 17:21 51.56552 9.43964 34544 ft 453 kts 11°
2026-05-08 17:21 51.59632 9.45049 34853 ft 453 kts 11°
2026-05-08 17:21 51.62716 9.46139 35156 ft 454 kts 11°
2026-05-08 17:22 51.65807 9.47230 35442 ft 455 kts 11°
2026-05-08 17:22 51.68902 9.48322 35719 ft 456 kts 11°
2026-05-08 17:22 51.72000 9.49417 35983 ft 457 kts 11°
2026-05-08 17:22 51.75110 9.50522 36245 ft 457 kts 11°
2026-05-08 17:23 51.78220 9.51629 36495 ft 458 kts 11°
2026-05-08 17:23 51.81337 9.52726 36757 ft 459 kts
2026-05-08 17:23 51.84495 9.53344 36992 ft 457 kts
2026-05-08 17:23 51.87678 9.53423 37138 ft 458 kts 359°
2026-05-08 17:24 51.94054 9.53560 37162 ft 458 kts 359°
2026-05-08 17:24 52.00431 9.53728 37162 ft 459 kts 359°
2026-05-08 17:25 52.06813 9.53904 37168 ft 458 kts 359°
2026-05-08 17:25 52.13188 9.54056 37168 ft 458 kts 359°
2026-05-08 17:26 52.19564 9.54213 37166 ft 458 kts 359°
2026-05-08 17:26 52.25941 9.54375 37171 ft 458 kts 359°
2026-05-08 17:27 52.32317 9.54533 37173 ft 458 kts 359°
2026-05-08 17:27 52.38694 9.54694 37169 ft 458 kts 359°
2026-05-08 17:28 52.45072 9.54852 37172 ft 458 kts 359°
2026-05-08 17:28 52.51405 9.55015 37177 ft 458 kts 359°
2026-05-08 17:29 52.57780 9.55175 37179 ft 458 kts 359°
2026-05-08 17:29 52.64154 9.55325 37195 ft 458 kts 359°
2026-05-08 17:30 52.70526 9.55480 37191 ft 458 kts 359°
2026-05-08 17:30 52.75823 9.55615 37180 ft 458 kts 359°
2026-05-08 17:31 52.82193 9.55782 37168 ft 458 kts 359°
2026-05-08 17:31 52.88561 9.55940 37180 ft 458 kts 359°
2026-05-08 17:32 52.94930 9.56103 37184 ft 458 kts 359°
2026-05-08 17:32 53.01298 9.56271 37177 ft 458 kts 359°
2026-05-08 17:33 53.07667 9.56442 37178 ft 458 kts 359°
2026-05-08 17:33 53.14032 9.56606 37177 ft 458 kts 359°
2026-05-08 17:34 53.20400 9.56764 37183 ft 457 kts 359°
2026-05-08 17:34 53.26762 9.56922 37181 ft 457 kts 359°
2026-05-08 17:35 53.33123 9.57093 37184 ft 457 kts 359°
2026-05-08 17:35 53.39393 9.57261 37161 ft 457 kts 358°
2026-05-08 17:36 53.45792 9.57442 37182 ft 456 kts 358°
2026-05-08 17:36 53.52136 9.57615 37195 ft 456 kts 358°
2026-05-08 17:37 53.58485 9.57782 37199 ft 456 kts 358°
2026-05-08 17:37 53.64832 9.57887 37198 ft 455 kts 354°
2026-05-08 17:38 53.71087 9.56590 37196 ft 453 kts 349°
2026-05-08 17:38 53.77293 9.55138 37198 ft 453 kts 349°
2026-05-08 17:39 53.83534 9.53693 37192 ft 452 kts 349°
2026-05-08 17:39 53.89772 9.52243 37155 ft 453 kts 349°
2026-05-08 17:40 53.92901 9.51512 36457 ft 457 kts 349°
2026-05-08 17:40 53.96069 9.50765 35601 ft 460 kts 349°
2026-05-08 17:40 53.99197 9.49751 34838 ft 457 kts 342°
2026-05-08 17:40 54.02169 9.47900 34133 ft 453 kts 332°
2026-05-08 17:41 54.04922 9.45359 33285 ft 450 kts 327°
2026-05-08 17:41 54.07629 9.42686 32349 ft 450 kts 328°
2026-05-08 17:41 54.10339 9.40016 31399 ft 451 kts 328°
2026-05-08 17:41 54.13056 9.37338 30424 ft 452 kts 328°
2026-05-08 17:42 54.15779 9.34649 29263 ft 453 kts 328°
2026-05-08 17:42 54.18511 9.31949 28007 ft 455 kts 328°
2026-05-08 17:42 54.21257 9.29233 26695 ft 458 kts 328°
2026-05-08 17:42 54.24012 9.26502 25605 ft 456 kts 328°
2026-05-08 17:43 54.26752 9.23776 24491 ft 455 kts 328°
2026-05-08 17:43 54.29481 9.21055 23436 ft 452 kts 328°
2026-05-08 17:43 54.32188 9.18353 22390 ft 448 kts 328°
2026-05-08 17:43 54.34852 9.15691 21663 ft 438 kts 328°
2026-05-08 17:44 54.37330 9.12758 20918 ft 429 kts 319°
2026-05-08 17:44 54.39479 9.09279 20211 ft 421 kts 313°
2026-05-08 17:44 54.41521 9.05725 19527 ft 415 kts 313°
2026-05-08 17:44 54.43537 9.02221 18876 ft 409 kts 314°
2026-05-08 17:45 54.45526 8.98767 18201 ft 405 kts 314°
2026-05-08 17:45 54.47491 8.95355 17591 ft 398 kts 314°
2026-05-08 17:45 54.49427 8.91992 17015 ft 393 kts 314°
2026-05-08 17:45 54.51333 8.88669 16479 ft 388 kts 314°
2026-05-08 17:46 54.53218 8.85365 15943 ft 384 kts 314°
2026-05-08 17:46 54.55078 8.82104 15414 ft 380 kts 314°
2026-05-08 17:46 54.56920 8.78875 14874 ft 376 kts 314°
2026-05-08 17:46 54.58742 8.75676 14351 ft 372 kts 314°
2026-05-08 17:47 54.60522 8.72469 13764 ft 369 kts 310°
2026-05-08 17:47 54.62012 8.68915 13188 ft 364 kts 300°
2026-05-08 17:47 54.63124 8.65089 12604 ft 360 kts 293°
2026-05-08 17:47 54.63807 8.62430 12201 ft 357 kts 293°
2026-05-08 17:48 54.65159 8.57218 11386 ft 354 kts 294°
2026-05-08 17:48 54.66135 8.53475 11255 ft 338 kts 294°
2026-05-08 17:48 54.67075 8.49861 11164 ft 322 kts 294°
2026-05-08 17:48 54.67971 8.46398 11031 ft 310 kts 293°
2026-05-08 17:49 54.68830 8.43059 10897 ft 298 kts 293°
2026-05-08 17:49 54.69654 8.39837 10767 ft 288 kts 293°
2026-05-08 17:49 54.70448 8.36727 10641 ft 278 kts 293°
2026-05-08 17:49 54.71216 8.33724 10519 ft 268 kts 293°
2026-05-08 17:50 54.71957 8.30828 10402 ft 259 kts 293°
2026-05-08 17:50 54.72768 8.28119 10287 ft 250 kts 303°
2026-05-08 17:50 54.73881 8.25841 10129 ft 260 kts 315°
2026-05-08 17:50 54.75425 8.23884 9531 ft 283 kts 332°
2026-05-08 17:51 54.77250 8.22531 9017 ft 287 kts 339°
2026-05-08 17:51 54.79109 8.21233 8503 ft 289 kts 339°
2026-05-08 17:51 54.80975 8.19910 7980 ft 291 kts 339°
2026-05-08 17:51 54.82852 8.18574 7458 ft 293 kts 340°
2026-05-08 17:52 54.84744 8.17226 6932 ft 295 kts 340°
2026-05-08 17:52 54.86643 8.15873 6391 ft 295 kts 340°
2026-05-08 17:52 54.90317 8.13249 5273 ft 278 kts 340°
2026-05-08 17:53 54.92084 8.11984 4890 ft 265 kts 340°
2026-05-08 17:53 54.93736 8.10796 4804 ft 250 kts 340°
2026-05-08 17:53 54.95299 8.09671 4709 ft 237 kts 340°
2026-05-08 17:53 54.96819 8.08881 4595 ft 220 kts 359°
2026-05-08 17:54 54.98283 8.09189 4494 ft 209 kts 23°
2026-05-08 17:54 54.99527 8.10460 4157 ft 209 kts 46°
2026-05-08 17:54 55.00427 8.12432 3824 ft 209 kts 57°
2026-05-08 17:54 55.01272 8.14498 3497 ft 210 kts 57°
2026-05-08 17:55 55.02087 8.16600 3149 ft 208 kts 66°
2026-05-08 17:55 55.02289 8.19018 2837 ft 203 kts 102°
2026-05-08 17:55 55.01654 8.21126 2541 ft 203 kts 135°
2026-05-08 17:55 55.00515 8.22586 2228 ft 204 kts 143°
2026-05-08 17:56 54.99372 8.23987 1927 ft 196 kts 143°
2026-05-08 17:56 54.98283 8.25335 1661 ft 187 kts 142°
2026-05-08 17:56 54.97255 8.26614 1387 ft 177 kts 142°
2026-05-08 17:56 54.96290 8.27817 1143 ft 163 kts 141°
2026-05-08 17:57 54.95431 8.28888 937 ft 142 kts 141°
2026-05-08 17:57 54.94670 8.29840 741 ft 129 kts 141°
2026-05-08 17:57 54.93960 8.30730 575 ft 124 kts 141°
2026-05-08 17:57 54.93269 8.31597 414 ft 122 kts 141°
2026-05-08 17:58 54.92601 8.32451 245 ft 118 kts 140°
2026-05-08 17:58 54.91941 8.33280 66 ft 116 kts 140°
2026-05-08 17:58 54.91342 8.34045 38 ft 92 kts 145°
2026-05-08 17:58 54.90948 8.34515 36 ft 48 kts 144°
2026-05-08 17:59 54.90715 8.34803 35 ft 35 kts 145°
2026-05-08 17:59 54.90578 8.34905 35 ft 13 kts 209°
2026-05-08 17:59 54.90513 8.34802 34 ft 13 kts 222°
2026-05-08 17:59 54.90443 8.34692 35 ft 14 kts 222°
2026-05-08 18:00 54.90367 8.34572 35 ft 16 kts 223°
2026-05-08 18:00 54.90241 8.34205 32 ft 20 kts 260°
2026-05-08 18:00 54.90239 8.33964 33 ft 20 kts 277°
2026-05-08 18:01 54.90262 8.33724 33 ft 21 kts 280°
2026-05-08 18:01 54.90320 8.33495 33 ft 21 kts 305°
2026-05-08 18:01 54.90429 8.33323 34 ft 21 kts 330°
2026-05-08 18:01 54.90568 8.33245 35 ft 21 kts 353°
2026-05-08 18:02 54.90716 8.33228 35 ft 22 kts 355°
2026-05-08 18:02 54.90818 8.33208 35 ft 22 kts 351°
2026-05-08 18:02 54.90980 8.33111 34 ft 11 kts 39°
2026-05-08 18:02 54.91061 8.33177 34 ft 16 kts 11°
2026-05-08 18:03 54.91183 8.33180 34 ft 19 kts 359°
2026-05-08 18:03 54.91312 8.33225 29 ft 17 kts 32°
2026-05-08 18:03 54.91385 8.33191 29 ft 8 kts 284°
2026-05-08 18:03 54.91385 8.33143 29 ft 2 kts 270°
2026-05-08 18:04 54.91385 8.33140 29 ft 1 kts 270°
2026-05-08 18:04 54.91385 8.33119 29 ft 1 kts 270°
2026-05-08 18:04 54.91385 8.33118 29 ft 0 kts 270°